Delta Virtual Airport Information Service

Minneapolis Saint Paul International Airport

ICAO: KMSP Country: United States
Latitude: 44.882 Longitude: -93.2217
Latest Arrival : DAL1496 (2) (KLGA-KMSP) Latest Departure : DAL1084 (2A) (KMSP-CYVR)


WX CaptureLIVE
Data provided by noaa.gov | Fetched at 09:47:48

METAR : KMSP 041353Z 25005KT 10SM FEW065 18/12 A3017 RMK AO2 SLP213 T01780122

TAF : KMSP 041124Z 0412/0518 29002KT P6SM SKC FM041700 27007KT P6SM SCT060 FM050200 18004KT P6SM SCT250


Runway Data for KMSP
Data provided by openaviationdata.com

Runway ID Mag Var Hdg Length Elevation Surface ILS Freq ILS Id ILS Slope
4 2 42° 10999 ft 841 ft Concrete 109.3 IAPL 3
12L 2 119° 8190 ft 841 ft Asphalt 110.7 IPJL 3
12R 2 119° 9988 ft 841 ft Asphalt 110.3 IHKZ 3
22 2 222° 10999 ft 841 ft Concrete 110.5 ISIJ 0
30L 2 299° 9988 ft 841 ft Asphalt 110.3 IMSP 3
30R 2 299° 8190 ft 841 ft Asphalt 110.7 IINN 3

Minneapolis Saint Paul International Airport, United States
Use only for reference purposes



Not for navigational purposes.